Regional Weather Roundup
Issued by NWS

Home | Current Version | Previous Version | Text Only | Print | Product List | Glossary Off
Versions: 1 2 3 4 5 6 7 8 9 10 11 12 13 14 15 16 17 18 19 20 21 22 23 24 25 26 27

000
ASUS45 KSLC 280710
RWRUT

UTAH REGIONAL WEATHER ROUNDUP
NATIONAL WEATHER SERVICE SALT LAKE CITY UT
100 AM MDT WED SEP 28 2016

UTZ001>011-023>025-280800-

NORTHERN UTAH

CITY           SKY/WX    TMP DP  RH WIND       PRES   REMARKS
BRIGHAM CITY     N/A     55  51  86 CALM      30.16R
HILL AFB       CLEAR     60  43  54 E14       30.16S
LOGAN          CLEAR     47  45  93 CALM      30.17R
OGDEN          CLEAR     57  45  64 SW3       30.14F
PROVO AIRPORT  CLEAR     54  45  71 E3        30.17S
SALT LAKE CITY CLEAR     59  51  75 SE6       30.14S
VERNAL         CLEAR     50  43  77 W3        30.22R
WENDOVER       CLEAR     54  45  71 SW5       30.15R
HEBER CITY     CLEAR     45  37  76 CALM      30.23S
WEST JORDAN    CLEAR     56  47  72 SW7       30.17S

$$

UTZ012>022-026-027-280800-

SOUTHERN/CENTRAL UTAH

CITY           SKY/WX    TMP DP  RH WIND       PRES   REMARKS
BLANDING       PTCLDY    57  33  39 NE8       30.31R
BRYCE CANYON   PTCLDY    41  35  79 W6        30.35R
CEDAR CITY     PTCLDY    58  33  39 S6        30.20S
DELTA          CLEAR     54  45  71 CALM      30.15S
MILFORD        CLEAR     57  35  43 W9        30.16S
MOAB/CYNLANDS  CLEAR     54  39  57 SW5       30.14R
PRICE          CLEAR     53  38  56 N5        30.23S
ST GEORGE      MOSUNNY   72  43  35 E9        30.06S

$$

REGIONAL REPORTS     COLORADO/ARIZONA

CITY           SKY/WX    TMP DP  RH WIND       PRES   REMARKS
CRAIG, CO      CLOUDY    39  34  82 S3        30.30R
GRAND JUNCTION CLEAR     56  37  49 E5        30.18R
RIFLE          CLEAR     52  41  66 CALM      30.25R
MONTROSE       CLEAR     54  37  52 SE10      30.27S
CORTEZ         CLEAR     45  37  73 E3        30.26R
PAGE, AZ       CLEAR     68  38  33 CALM      30.14S
GRAND CANYON   CLOUDY    59  40  49 CALM      30.27R
KINGMAN        MOCLDY    66  44  45 SE9       30.07F
FLAGSTAFF      MOCLDY    49  47  93 NE3       30.30F

$$

REGIONAL REPORTS    NEVADA/IDAHO/WYOMING

CITY           SKY/WX    TMP DP  RH WIND       PRES   REMARKS
LAS VEGAS, NV  PTCLDY    78  42  27 S5        29.96F
ELY            CLEAR     46  30  53 S12       30.24S
ELKO           CLEAR     52  40  63 CALM      30.15R
POCATELLO, ID  CLEAR     48  45  89 CALM      30.16R
BURLEY         CLEAR     49  46  90 CALM      30.10S
EVANSTON, WY   CLOUDY    53  37  54 E5        30.32S
ROCK SPRINGS   CLOUDY    50  39  66 N3        30.31R

$$




USA.gov is the U.S. government's official web portal to all federal, state and local government web resources and services.